Flag for Russia Weather past 2 weeks in Kazan, Russia

Now
66 °F

Partly sunny.


Feels Like: 66 °F
Forecast: 58 / 72 °F
Wind: 17 mph from Northwest

Location: Kazan'

Current Time: Aug 2, 2015 at 11:58:09 AM

Latest Report: Aug 2, 2015 at 11:30 AM


Visibility: N/A

Pressure: 30.04 "Hg

Humidity: 64%

Dew point: 54 °F

Location of KazanLocation

Historic Weather in Kazan — Graph

°F

Kazan temperature yesterday

Maximum temperature yesterday: 73 °F (at 10:30 AM)
Minimum temperature yesterday: 59 °F (at 2:00 AM)
Average temperature yesterday: 65 °F

Past Weeks' High & Low Weather Summary

 TemperatureHumidityPressure
High82 °F (Jul 29, 1:00 PM)100% (Jul 24, 1:30 AM)30.04 "Hg (Jul 24, 1:30 AM)
Low50 °F (Jul 19, 3:30 AM)35% (Jul 19, 4:00 PM)29.42 "Hg (Jul 21, 7:30 AM)
Average66 °F70%29.79 "Hg
* Reported Jul 18 10:00 AM — Aug 2 10:30 AM, Kazan, Weather by CustomWeather, © 2015

Note: Actual official high and low records may vary slightly from our data, if they occured in-between our weather recording intervals... More about our weather records

Advertising

Kazan weather history for previous 24 hours

 ConditionsComfort  
Time TempWeatherWind HumidityBarometerVisibility
10:30 AM
Sun, Aug 2
64 °FPartly sunny.15 mph73%30.04 "HgN/A
10:00 AM64 °FPartly sunny.15 mph73%30.01 "HgN/A
9:30 AM63 °FPartly sunny.15 mph77%30.01 "HgN/A
9:00 AM61 °FPartly sunny.15 mph77%29.98 "HgN/A
8:30 AM61 °FPartly sunny.13 mph77%29.98 "HgN/A
8:00 AM59 °FPartly sunny.15 mph82%29.98 "HgN/A
7:30 AM57 °FPartly sunny.15 mph88%29.95 "HgN/A
7:00 AM57 °FPartly sunny.15 mph88%29.95 "HgN/A
6:30 AM57 °FPartly sunny.15 mph88%29.95 "HgN/A
6:00 AM57 °FPartly sunny.15 mph88%29.92 "HgN/A
5:30 AM57 °FPartly sunny.15 mph88%29.92 "HgN/A
5:00 AM57 °FPartly sunny.13 mph88%29.92 "HgN/A
4:30 AM57 °FPassing clouds.10 mph88%29.89 "HgN/A
4:00 AM57 °FPassing clouds.10 mph94%29.89 "HgN/A
3:30 AM59 °FPassing clouds.13 mph88%29.89 "HgN/A
3:00 AM59 °FPassing clouds.10 mph88%29.86 "HgN/A
2:30 AM57 °FPartly cloudy.10 mph94%29.86 "HgN/A
2:00 AM57 °FClear.13 mph88%29.86 "Hg10 mi
1:30 AM57 °FPartly cloudy.13 mph88%29.86 "HgN/A
1:00 AM57 °FPartly cloudy.13 mph88%29.83 "HgN/A
12:30 AM59 °FPartly cloudy.15 mph82%29.83 "HgN/A
12:00 AM59 °FPassing clouds.17 mph88%29.80 "HgN/A
11:30 PM
Sat, Aug 1
61 °FPassing clouds.15 mph88%29.80 "HgN/A
11:00 PM61 °FSprinkles. Passing clouds.13 mph94%29.80 "HgN/A
10:30 PM61 °FPassing clouds.15 mph94%29.77 "HgN/A
10:00 PM61 °FPassing clouds.15 mph94%29.77 "HgN/A
9:30 PM61 °FSprinkles. Passing clouds.15 mph94%29.74 "HgN/A
9:00 PM61 °FPassing clouds.17 mph94%29.74 "HgN/A
8:30 PM61 °FPartly sunny.15 mph94%29.71 "HgN/A
8:00 PM61 °FSprinkles. Partly sunny.15 mph94%29.71 "HgN/A
7:30 PM61 °FSprinkles. Partly sunny.15 mph94%29.68 "HgN/A
7:00 PM63 °FThundershowers. Partly sunny.13 mph94%29.71 "Hg2 mi
6:30 PM66 °FSprinkles. Partly sunny.13 mph88%29.68 "HgN/A
6:00 PM66 °FThundershowers. Partly sunny.8 mph94%29.71 "Hg3 mi
5:30 PM68 °FSprinkles. Partly sunny.6 mph83%29.71 "HgN/A
5:00 PM68 °FPartly sunny.8 mph83%29.71 "HgN/A
4:30 PM70 °FPartly sunny.6 mph78%29.74 "HgN/A
4:00 PM70 °FPartly sunny.8 mph78%29.77 "HgN/A
3:30 PM70 °FScattered clouds.8 mph78%29.83 "HgN/A
3:00 PM70 °FScattered clouds.6 mph78%29.86 "HgN/A
2:30 PM70 °FScattered clouds.3 mph78%29.86 "HgN/A
2:00 PM70 °FPartly sunny.3 mph78%29.86 "HgN/A
1:30 PM70 °FPartly sunny.6 mph78%29.89 "HgN/A
1:00 PM70 °FPartly sunny.3 mph78%29.92 "HgN/A
12:30 PM70 °FSprinkles. Partly sunny.6 mph78%29.92 "HgN/A
12:00 PM72 °FSprinkles. Partly sunny.8 mph73%29.92 "HgN/A
11:30 AM72 °FSprinkles. Partly sunny.10 mph69%29.92 "HgN/A
11:00 AM72 °FPartly sunny.8 mph61%29.92 "HgN/A
Weather by CustomWeather, © 2015

See weather overviewHow to use our weather pages